Location: Unspecified
(41.0082°N, 0.0000°E)
Time: 07:19:15
(UTC+00:00)

PDD/Star 20 E-44 - Visible Passes

Search period start: 05 April 2026 00:00
Search period end: 15 April 2026 00:00
Orbit: 586 x 671 km, 89.9° (Epoch: 28 March)

Date Brightness Start Highest point End Pass type
(mag) Time Alt. Az. Time Alt. Az. Time Alt. Az.
5 Apr 7.7 03:27:01 10° SE 03:30:32 26° E 03:34:02 10° NNE visible
5 Apr 6.6 05:04:13 10° SW 05:07:41 24° W 05:11:06 10° NNW visible
6 Apr 6.4 03:46:29 10° SSE 03:50:34 48° E 03:54:37 10° N visible
7 Apr 5.4 04:06:26 10° S 04:10:40 87° W 04:14:53 10° N visible
8 Apr 8.4 02:51:50 10° ESE 02:54:04 14° ENE 02:56:16 10° NE visible
8 Apr 5.8 04:26:48 10° SSW 04:30:51 44° W 04:34:53 10° NNW visible
9 Apr 7.6 03:10:32 10° SE 03:13:59 25° E 03:17:27 10° NNE visible
9 Apr 6.6 04:47:42 10° SW 04:51:07 24° W 04:54:33 10° NNW visible
10 Apr 6.4 03:29:58 10° SSE 03:34:00 47° E 03:38:01 10° N visible
11 Apr 5.4 03:50:20 13° S 03:54:06 88° W 03:58:18 10° N visible
12 Apr 8.4 02:35:21 10° ESE 02:37:29 14° ENE 02:39:37 10° NE visible
12 Apr 5.7 04:10:54 14° SSW 04:14:16 45° W 04:18:17 10° NNW visible
13 Apr 7.6 02:54:04 10° SE 02:57:23 25° E 03:00:49 10° NNE visible
13 Apr 6.6 04:31:26 12° SW 04:34:31 24° W 04:37:56 10° NNW visible
14 Apr 6.4 03:14:33 18° SSE 03:17:23 46° E 03:21:24 10° N visible
14 Apr 7.3 04:52:51 10° WSW 04:54:51 13° W 04:56:53 10° NW visible
